Time,TemperatureF,DewpointF,PressureIn,WindDirection,WindDirectionDegrees,WindSpeedMPH,WindSpeedGustMPH,Humidity,HourlyPrecipIn,Conditions,Clouds,dailyrainin,SoftwareType,DateUTC
2013-03-05 00:02:00,-999.0,-99.9,30.10,West,279,2.0,6.0,-999,-99.99,,,-99.99,,2013-03-05 05:02:00,
2013-03-05 00:12:00,-999.0,-99.9,30.10,West,273,3.0,6.0,-999,-99.99,,,-99.99,,2013-03-05 05:12:00,
2013-03-05 00:23:00,45.0,-99.9,30.10,North,-999,-999.0,-999.0,-999,-99.99,,,-99.99,,2013-03-05 05:23:00,
2013-03-05 00:32:00,-999.0,-99.9,30.09,West,276,2.0,5.0,-999,-99.99,,,-99.99,,2013-03-05 05:32:00,
2013-03-05 00:42:00,-999.0,-99.9,30.08,WNW,298,5.0,5.0,-999,-99.99,,,-99.99,,2013-03-05 05:42:00,
2013-03-05 00:52:00,46.0,-99.9,30.08,North,-999,-999.0,-999.0,-999,-99.99,,,-99.99,,2013-03-05 05:52:00,
2013-03-05 01:02:00,-999.0,-99.9,30.08,WNW,300,3.0,5.0,-999,-99.99,,,-99.99,,2013-03-05 06:02:00,
2013-03-05 01:11:00,-999.0,-99.9,30.08,WNW,290,4.0,6.0,-999,-99.99,,,-99.99,,2013-03-05 06:11:00,
2013-03-05 01:22:00,45.0,-99.9,30.08,North,-999,-999.0,-999.0,-999,-99.99,,,-99.99,,2013-03-05 06:22:00,
2013-03-05 01:32:00,45.0,-99.9,30.09,North,-999,-999.0,-999.0,-999,-99.99,,,-99.99,,2013-03-05 06:32:00,
2013-03-05 01:52:00,-999.0,-99.9,30.09,WNW,292,6.0,10.0,-999,-99.99,,,-99.99,,2013-03-05 06:52:00,
2013-03-05 02:01:00,-999.0,-99.9,30.09,WNW,292,6.0,10.0,-999,-99.99,,,-99.99,,2013-03-05 07:01:00,
2013-03-05 02:22:00,44.0,-99.9,30.09,North,-999,-999.0,-999.0,-999,-99.99,,,-99.99,,2013-03-05 07:22:00,
2013-03-05 02:32:00,-999.0,-99.9,30.08,WNW,295,6.0,9.0,-999,-99.99,,,-99.99,,2013-03-05 07:32:00,
2013-03-05 02:42:00,44.0,-99.9,30.08,North,-999,-999.0,-999.0,-999,-99.99,,,-99.99,,2013-03-05 07:42:00,
2013-03-05 02:52:00,-999.0,-99.9,30.08,WNW,290,4.0,8.0,-999,-99.99,,,-99.99,,2013-03-05 07:52:00,
2013-03-05 03:02:00,43.0,-99.9,30.08,North,-999,-999.0,-999.0,-999,-99.99,,,-99.99,,2013-03-05 08:02:00,
2013-03-05 03:21:00,-999.0,-99.9,30.07,WNW,297,4.0,7.0,-999,-99.99,,,-99.99,,2013-03-05 08:21:00,
2013-03-05 03:32:00,-999.0,-99.9,30.07,WNW,294,5.0,7.0,-999,-99.99,,,-99.99,,2013-03-05 08:32:00,
2013-03-05 03:42:00,-999.0,-99.9,30.07,WNW,293,4.0,8.0,-999,-99.99,,,-99.99,,2013-03-05 08:42:00,
2013-03-05 03:52:00,-999.0,-99.9,30.08,WNW,290,5.0,9.0,-999,-99.99,,,-99.99,,2013-03-05 08:52:00,
2013-03-05 04:02:00,44.0,-99.9,30.08,North,-999,-999.0,-999.0,-999,-99.99,,,-99.99,,2013-03-05 09:02:00,
2013-03-05 04:11:00,44.0,-99.9,30.08,North,-999,-999.0,-999.0,-999,-99.99,,,-99.99,,2013-03-05 09:11:00,
2013-03-05 04:22:00,44.0,-99.9,30.08,North,-999,-999.0,-999.0,-999,-99.99,,,-99.99,,2013-03-05 09:22:00,
2013-03-05 04:32:00,-999.0,-99.9,30.08,WNW,294,6.0,11.0,-999,-99.99,,,-99.99,,2013-03-05 09:32:00,
2013-03-05 04:52:00,-999.0,-99.9,30.09,WNW,302,4.0,7.0,-999,-99.99,,,-99.99,,2013-03-05 09:52:00,
2013-03-05 05:02:00,43.0,-99.9,30.09,North,-999,-999.0,-999.0,-999,-99.99,,,-99.99,,2013-03-05 10:02:00,
2013-03-05 05:11:00,-999.0,-99.9,30.09,NW,307,3.0,6.0,-999,-99.99,,,-99.99,,2013-03-05 10:11:00,
2013-03-05 05:22:00,43.0,-99.9,30.09,North,-999,-999.0,-999.0,-999,-99.99,,,-99.99,,2013-03-05 10:22:00,
2013-03-05 05:32:00,-999.0,-99.9,30.09,NNW,336,1.0,2.0,-999,-99.99,,,-99.99,,2013-03-05 10:32:00,
2013-03-05 05:42:00,43.0,-99.9,30.10,North,-999,-999.0,-999.0,-999,-99.99,,,-99.99,,2013-03-05 10:42:00,
2013-03-05 05:52:00,-999.0,-99.9,30.10,WSW,242,2.0,3.0,-999,-99.99,,,-99.99,,2013-03-05 10:52:00,
2013-03-05 06:02:00,43.0,-99.9,30.11,North,-999,-999.0,-999.0,-999,-99.99,,,-99.99,,2013-03-05 11:02:00,
2013-03-05 06:22:00,44.0,-99.9,30.11,North,-999,-999.0,-999.0,-999,-99.99,,,-99.99,,2013-03-05 11:22:00,
2013-03-05 06:32:00,-999.0,-99.9,30.11,West,281,3.0,6.0,-999,-99.99,,,-99.99,,2013-03-05 11:32:00,
2013-03-05 06:42:00,-999.0,-99.9,30.11,West,280,2.0,8.0,-999,-99.99,,,-99.99,,2013-03-05 11:42:00,
2013-03-05 06:52:00,45.0,-99.9,30.11,North,-999,-999.0,-999.0,-999,-99.99,,,-99.99,,2013-03-05 11:52:00,
2013-03-05 07:03:00,45.0,-99.9,30.11,North,-999,-999.0,-999.0,-999,-99.99,,,-99.99,,2013-03-05 12:03:00,
2013-03-05 07:12:00,-999.0,-99.9,30.11,West,269,4.0,6.0,-999,-99.99,,,-99.99,,2013-03-05 12:12:00,
2013-03-05 07:22:00,46.0,-99.9,30.11,North,-999,-999.0,-999.0,-999,-99.99,,,-99.99,,2013-03-05 12:22:00,
2013-03-05 07:32:00,-999.0,-99.9,30.11,WNW,298,4.0,5.0,-999,-99.99,,,-99.99,,2013-03-05 12:32:00,
2013-03-05 07:42:00,-999.0,-99.9,30.11,WNW,301,4.0,7.0,-999,-99.99,,,-99.99,,2013-03-05 12:42:00,
2013-03-05 07:53:00,-999.0,-99.9,30.11,NW,319,3.0,6.0,-999,-99.99,,,-99.99,,2013-03-05 12:53:00,
2013-03-05 08:02:00,-999.0,-99.9,30.11,NNW,332,3.0,4.0,-999,-99.99,,,-99.99,,2013-03-05 13:02:00,
2013-03-05 08:22:00,-999.0,-99.9,30.11,WNW,303,4.0,6.0,-999,-99.99,,,-99.99,,2013-03-05 13:22:00,
2013-03-05 08:32:00,-999.0,-99.9,30.11,North,2,4.0,5.0,-999,-99.99,,,-99.99,,2013-03-05 13:32:00,
2013-03-05 08:42:00,-999.0,-99.9,30.12,NNW,333,3.0,6.0,-999,-99.99,,,-99.99,,2013-03-05 13:42:00,
2013-03-05 08:52:00,-999.0,-99.9,30.12,North,351,5.0,5.0,-999,-99.99,,,-99.99,,2013-03-05 13:52:00,
2013-03-05 09:02:00,-999.0,-99.9,30.12,North,357,5.0,6.0,-999,-99.99,,,-99.99,,2013-03-05 14:02:00,
2013-03-05 09:11:00,45.0,-99.9,30.12,North,-999,-999.0,-999.0,-999,-99.99,,,-99.99,,2013-03-05 14:11:00,
2013-03-05 09:22:00,-999.0,-99.9,30.11,North,359,5.0,7.0,-999,-99.99,,,-99.99,,2013-03-05 14:22:00,
2013-03-05 09:32:00,46.0,-99.9,30.11,North,-999,-999.0,-999.0,-999,-99.99,,,-99.99,,2013-03-05 14:32:00,
2013-03-05 09:42:00,-999.0,-99.9,30.10,NNE,19,2.0,4.0,-999,-99.99,,,-99.99,,2013-03-05 14:42:00,
2013-03-05 09:52:00,47.0,-99.9,30.10,North,-999,-999.0,-999.0,-999,-99.99,,,-99.99,,2013-03-05 14:52:00,
2013-03-05 10:02:00,-999.0,-99.9,30.10,NNE,25,1.0,4.0,-999,-99.99,,,-99.99,,2013-03-05 15:02:00,
2013-03-05 10:22:00,-999.0,-99.9,30.09,South,187,1.0,2.0,-999,-99.99,,,-99.99,,2013-03-05 15:22:00,
2013-03-05 10:32:00,51.0,-99.9,30.09,North,-999,-999.0,-999.0,-999,-99.99,,,-99.99,,2013-03-05 15:32:00,
2013-03-05 10:42:00,52.0,-99.9,30.09,North,-999,-999.0,-999.0,-999,-99.99,,,-99.99,,2013-03-05 15:42:00,
2013-03-05 10:52:00,-999.0,-99.9,30.09,SW,219,6.0,8.0,-999,-99.99,,,-99.99,,2013-03-05 15:52:00,
2013-03-05 11:02:00,-999.0,-99.9,30.09,SSW,201,6.0,8.0,-999,-99.99,,,-99.99,,2013-03-05 16:02:00,
2013-03-05 11:22:00,-999.0,-99.9,30.08,SSW,201,7.0,9.0,-999,-99.99,,,-99.99,,2013-03-05 16:22:00,
2013-03-05 11:32:00,-999.0,-99.9,30.08,SSW,194,9.0,11.0,-999,-99.99,,,-99.99,,2013-03-05 16:32:00,
2013-03-05 11:42:00,52.0,-99.9,30.07,North,-999,-999.0,-999.0,-999,-99.99,,,-99.99,,2013-03-05 16:42:00,
2013-03-05 11:52:00,-999.0,-99.9,30.06,South,188,9.0,11.0,-999,-99.99,,,-99.99,,2013-03-05 16:52:00,
2013-03-05 12:01:00,53.0,-99.9,30.05,North,-999,-999.0,-999.0,-999,-99.99,,,-99.99,,2013-03-05 17:01:00,
2013-03-05 12:11:00,53.0,-99.9,30.05,North,-999,-999.0,-999.0,-999,-99.99,,,-99.99,,2013-03-05 17:11:00,
2013-03-05 12:22:00,-999.0,-99.9,30.04,South,179,10.0,11.0,-999,-99.99,,,-99.99,,2013-03-05 17:22:00,
2013-03-05 12:32:00,-999.0,-99.9,30.04,South,182,8.0,11.0,-999,-99.99,,,-99.99,,2013-03-05 17:32:00,
2013-03-05 12:53:00,54.0,-99.9,30.03,North,-999,-999.0,-999.0,-999,-99.99,,,-99.99,,2013-03-05 17:53:00,
2013-03-05 13:02:00,55.0,-99.9,30.03,North,-999,-999.0,-999.0,-999,-99.99,,,-99.99,,2013-03-05 18:02:00,
2013-03-05 13:11:00,-999.0,-99.9,30.03,SSW,210,8.0,13.0,-999,-99.99,,,-99.99,,2013-03-05 18:11:00,
2013-03-05 13:22:00,-999.0,-99.9,30.02,SSW,213,8.0,15.0,-999,-99.99,,,-99.99,,2013-03-05 18:22:00,
2013-03-05 13:32:00,57.0,-99.9,30.02,North,-999,-999.0,-999.0,-999,-99.99,,,-99.99,,2013-03-05 18:32:00,
2013-03-05 13:42:00,56.0,-99.9,30.01,North,-999,-999.0,-999.0,-999,-99.99,,,-99.99,,2013-03-05 18:42:00,
2013-03-05 13:53:00,-999.0,-99.9,30.00,SW,215,11.0,16.0,-999,-99.99,,,-99.99,,2013-03-05 18:53:00,
2013-03-05 14:02:00,-999.0,-99.9,29.99,SSW,207,12.0,14.0,-999,-99.99,,,-99.99,,2013-03-05 19:02:00,
2013-03-05 14:11:00,-999.0,-99.9,29.98,SSW,208,12.0,17.0,-999,-99.99,,,-99.99,,2013-03-05 19:11:00,
2013-03-05 14:22:00,-999.0,-99.9,29.99,SW,215,9.0,15.0,-999,-99.99,,,-99.99,,2013-03-05 19:22:00,
2013-03-05 14:32:00,-999.0,-99.9,29.98,SSW,208,9.0,13.0,-999,-99.99,,,-99.99,,2013-03-05 19:32:00,
2013-03-05 14:52:00,-999.0,-99.9,29.97,SSW,206,12.0,14.0,-999,-99.99,,,-99.99,,2013-03-05 19:52:00,
2013-03-05 15:02:00,56.0,-99.9,29.96,North,-999,-999.0,-999.0,-999,-99.99,,,-99.99,,2013-03-05 20:02:00,
2013-03-05 15:11:00,-999.0,-99.9,29.96,SSW,203,11.0,13.0,-999,-99.99,,,-99.99,,2013-03-05 20:11:00,
2013-03-05 15:22:00,-999.0,-99.9,29.96,SSW,194,9.0,13.0,-999,-99.99,,,-99.99,,2013-03-05 20:22:00,
2013-03-05 15:32:00,55.0,-99.9,29.96,North,-999,-999.0,-999.0,-999,-99.99,,,-99.99,,2013-03-05 20:32:00,
2013-03-05 15:52:00,55.0,-99.9,29.95,North,-999,-999.0,-999.0,-999,-99.99,,,-99.99,,2013-03-05 20:52:00,
2013-03-05 16:02:00,-999.0,-99.9,29.95,SSW,199,10.0,11.0,-999,-99.99,,,-99.99,,2013-03-05 21:02:00,
2013-03-05 16:22:00,56.0,-99.9,29.94,North,-999,-999.0,-999.0,-999,-99.99,,,-99.99,,2013-03-05 21:22:00,
2013-03-05 16:32:00,55.0,-99.9,29.93,North,-999,-999.0,-999.0,-999,-99.99,,,-99.99,,2013-03-05 21:32:00,
2013-03-05 16:42:00,55.0,-99.9,29.93,North,-999,-999.0,-999.0,-999,-99.99,,,-99.99,,2013-03-05 21:42:00,
2013-03-05 16:52:00,55.0,-99.9,29.92,North,-999,-999.0,-999.0,-999,-99.99,,,-99.99,,2013-03-05 21:52:00,
2013-03-05 17:01:00,56.0,-99.9,29.92,North,-999,-999.0,-999.0,-999,-99.99,,,-99.99,,2013-03-05 22:01:00,
2013-03-05 17:12:00,-999.0,-99.9,29.92,SSW,202,10.0,12.0,-999,-99.99,,,-99.99,,2013-03-05 22:12:00,
2013-03-05 17:22:00,55.0,-99.9,29.92,North,-999,-999.0,-999.0,-999,-99.99,,,-99.99,,2013-03-05 22:22:00,
2013-03-05 17:32:00,56.0,-99.9,29.91,North,-999,-999.0,-999.0,-999,-99.99,,,-99.99,,2013-03-05 22:32:00,
2013-03-05 17:42:00,-999.0,-99.9,29.91,SSW,204,7.0,9.0,-999,-99.99,,,-99.99,,2013-03-05 22:42:00,
2013-03-05 17:52:00,-999.0,-99.9,29.90,SSW,197,7.0,9.0,-999,-99.99,,,-99.99,,2013-03-05 22:52:00,
2013-03-05 18:01:00,-999.0,-99.9,29.90,SSW,202,11.0,12.0,-999,-99.99,,,-99.99,,2013-03-05 23:01:00,
2013-03-05 18:11:00,56.0,-99.9,29.89,SSW,209,9.0,13.0,-999,-99.99,,,-99.99,,2013-03-05 23:11:00,
2013-03-05 18:22:00,-999.0,-99.9,29.89,SSW,210,9.0,14.0,-999,-99.99,,,-99.99,,2013-03-05 23:22:00,
2013-03-05 18:32:00,-999.0,-99.9,29.89,SSW,207,8.0,13.0,-999,-99.99,,,-99.99,,2013-03-05 23:32:00,
2013-03-05 18:42:00,-999.0,-99.9,29.89,SSW,207,7.0,10.0,-999,-99.99,,,-99.99,,2013-03-05 23:42:00,
2013-03-05 18:53:00,-999.0,-99.9,29.89,SSW,204,6.0,9.0,-999,-99.99,,,-99.99,,2013-03-05 23:53:00,
2013-03-05 19:02:00,-999.0,-99.9,29.88,SSW,203,7.0,9.0,-999,-99.99,,,-99.99,,2013-03-06 00:02:00,
2013-03-05 19:22:00,55.0,-99.9,29.87,North,-999,-999.0,-999.0,-999,-99.99,,,-99.99,,2013-03-06 00:22:00,
2013-03-05 19:32:00,56.0,-99.9,29.86,North,-999,-999.0,-999.0,-999,-99.99,,,-99.99,,2013-03-06 00:32:00,
2013-03-05 19:42:00,56.0,-99.9,29.86,North,-999,-999.0,-999.0,-999,-99.99,,,-99.99,,2013-03-06 00:42:00,
2013-03-05 19:52:00,-999.0,-99.9,29.85,SSW,206,6.0,8.0,-999,-99.99,,,-99.99,,2013-03-06 00:52:00,
2013-03-05 20:02:00,56.0,-99.9,29.85,North,-999,-999.0,-999.0,-999,-99.99,,,-99.99,,2013-03-06 01:02:00,
2013-03-05 20:11:00,-999.0,-99.9,29.84,SSW,202,8.0,9.0,-999,-99.99,,,-99.99,,2013-03-06 01:11:00,
2013-03-05 20:22:00,-999.0,-99.9,29.84,South,187,6.0,7.0,-999,-99.99,,,-99.99,,2013-03-06 01:22:00,
2013-03-05 20:32:00,55.0,-99.9,29.84,North,-999,-999.0,-999.0,-999,-99.99,,,-99.99,,2013-03-06 01:32:00,
2013-03-05 20:52:00,-999.0,-99.9,29.83,SSW,203,7.0,8.0,-999,-99.99,,,-99.99,,2013-03-06 01:52:00,
2013-03-05 21:01:00,-999.0,-99.9,29.82,SSW,202,8.0,10.0,-999,-99.99,,,-99.99,,2013-03-06 02:01:00,
2013-03-05 21:11:00,-999.0,-99.9,29.81,SSW,210,7.0,8.0,-999,-99.99,,,-99.99,,2013-03-06 02:11:00,
2013-03-05 21:22:00,56.0,-99.9,29.81,North,-999,-999.0,-999.0,-999,-99.99,,,-99.99,,2013-03-06 02:22:00,
2013-03-05 21:32:00,-999.0,-99.9,29.80,SSW,193,6.0,8.0,-999,-99.99,,,-99.99,,2013-03-06 02:32:00,
2013-03-05 21:42:00,-999.0,-99.9,29.80,SSW,208,5.0,7.0,-999,-99.99,,,-99.99,,2013-03-06 02:42:00,
2013-03-05 21:52:00,-999.0,-99.9,29.79,SSW,194,3.0,4.0,-999,-99.99,,,-99.99,,2013-03-06 02:52:00,
2013-03-05 22:02:00,55.0,-99.9,29.78,North,-999,-999.0,-999.0,-999,-99.99,,,-99.99,,2013-03-06 03:02:00,
2013-03-05 22:12:00,-999.0,-99.9,29.77,SSE,156,5.0,5.0,-999,-99.99,,,-99.99,,2013-03-06 03:12:00,
2013-03-05 22:22:00,-999.0,-99.9,29.74,SE,145,9.0,10.0,-999,-99.99,,,-99.99,,2013-03-06 03:22:00,
2013-03-05 22:32:00,-999.0,-99.9,29.73,SSE,164,11.0,13.0,-999,-99.99,,,-99.99,,2013-03-06 03:32:00,
2013-03-05 22:42:00,-999.0,-99.9,29.74,South,178,11.0,14.0,-999,-99.99,,,-99.99,,2013-03-06 03:42:00,
2013-03-05 22:53:00,56.0,-99.9,29.72,North,-999,-999.0,-999.0,-999,-99.99,,,-99.99,,2013-03-06 03:53:00,
2013-03-05 23:02:00,56.0,-99.9,29.72,North,-999,-999.0,-999.0,-999,-99.99,,,-99.99,,2013-03-06 04:02:00,
2013-03-05 23:11:00,-999.0,-99.9,29.70,South,181,15.0,17.0,-999,-99.99,,,-99.99,,2013-03-06 04:11:00,
2013-03-05 23:22:00,-999.0,-99.9,29.70,South,182,15.0,16.0,-999,-99.99,,,-99.99,,2013-03-06 04:22:00,
2013-03-05 23:32:00,57.0,-99.9,29.69,North,-999,-999.0,-999.0,-999,-99.99,,,-99.99,,2013-03-06 04:32:00,
2013-03-05 23:52:00,59.0,-99.9,29.68,North,-999,-999.0,-999.0,-999,-99.99,,,-99.99,,2013-03-06 04:52:00,